Porto Alegre, Brazil

1:42 AM -03 on April 23, 2018 (GMT -0300)
Salgado Filho International

Weather History for SBPA - December, 2013

Change the Weather History Date:

Sunday, December 29, 2013

  Actual Average Record
Temperature  
Mean Temperature 86 °F -  
Max Temperature 97 °F 84 °F 97 °F (2013)
Min Temperature 74 °F 67 °F 60 °F (2011)
Cooling Degree Days 20    
Growing Degree Days 36 (Base 50)    
Moisture  
Dew Point 71 °F    
Average Humidity 68    
Maximum Humidity 94    
Minimum Humidity 31    
Precipitation  
Precipitation 0.00 in - - ()
Sea Level Pressure  
Sea Level Pressure 29.74 in    
Wind  
Wind Speed 7 mph ()    
Max Wind Speed 18 mph    
Max Gust Speed 34 mph    
Visibility 7.5 miles    
Events Thunderstorm    
Averages and records for this station are not official NWS values.
T = Trace of Precipitation, MM = Missing Value Source: Averaged Metar Reports

Daily Weather History Graph

Daily Weather History Graph

Search for Another Location

Airport or City:

Astronomy

Dec. 29, 2013 Rise Set
Actual Time 6:25 AM -02 8:28 PM -02
Civil Twilight 5:57 AM -02 8:55 PM -02
Nautical Twilight 5:24 AM -02 9:29 PM -02
Astronomical Twilight 4:48 AM -02 10:04 PM -02
Moon 3:37 AM -02 (12/29) 5:32 PM -02 (12/29)
Length of Visible Light 14h 58m
Length of Day
14h 03m
Waning Crescent, 12% of the Moon is Illuminated
Dec 29
Waning Crescent
Jan 1
New
Jan 8
First Quarter
Jan 16
Full
Jan 24
Last Quarter

Hourly Weather History & Observations

Time (-02) Temp. Heat Index Dew Point Humidity Pressure Visibility Wind Dir Wind Speed Gust Speed Precip Events Conditions
12:00 AM 77.0 °F - 69.8 °F 78% 29.77 in - East 10.4 mph - N/A   Clear
1:00 AM 77.0 °F - 71.6 °F 83% 29.74 in - East 11.5 mph - N/A   Clear
2:00 AM 77.0 °F - 71.6 °F 83% 29.74 in - East 6.9 mph - N/A   Clear
3:00 AM 77.0 °F - 73.4 °F 89% 29.71 in - ESE 3.5 mph - N/A   Clear
4:00 AM 76 °F - 72 °F 86% 29.70 in 12 mi ENE 4.6 mph - -  
4:00 AM 75.2 °F - 73.4 °F 94% 29.68 in - ENE 4.6 mph - N/A   Clear
5:00 AM 75.2 °F - 71.6 °F 89% 29.68 in - Calm Calm - N/A   Clear
6:00 AM 75.2 °F - 71.6 °F 89% 29.68 in - ENE 2.3 mph - N/A   Clear
7:00 AM 75.2 °F - 73.4 °F 94% 29.71 in - ENE 5.8 mph - N/A   Clear
8:00 AM 78.8 °F - 73.4 °F 83% 29.74 in - East 2.3 mph - N/A   Clear
9:00 AM 84.2 °F 90.9 °F 73.4 °F 70% 29.74 in - NNW 4.6 mph - N/A   Clear
10:00 AM 86 °F - 71 °F 52% 29.76 in 12 mi NW 9.2 mph - -  
10:00 AM 77.0 °F - 68.0 °F 74% 29.89 in 6.2 mi East 9.2 mph - N/A   Mostly Cloudy
11:00 AM 78.8 °F - 69.8 °F 74% 29.89 in 6.2 mi East 10.4 mph - N/A   Mostly Cloudy
12:00 PM 82.4 °F 85.4 °F 68.0 °F 62% 29.92 in 6.2 mi East 16.1 mph - N/A   Mostly Cloudy
1:00 PM 80.6 °F 82.7 °F 66.2 °F 61% 29.95 in 6.2 mi SE 11.5 mph - N/A   Overcast
2:00 PM 91.4 °F 100.1 °F 73.4 °F 55% 29.80 in 6.2 mi WNW 4.6 mph - N/A   Partly Cloudy
3:00 PM 95.0 °F 101.3 °F 69.8 °F 44% 29.77 in 6.2 mi SE 5.8 mph - N/A   Partly Cloudy
4:00 PM 97 °F - 69 °F 31% 29.61 in 12 mi WNW 8.1 mph - -   Scattered Clouds
4:00 PM 100.4 °F 109.3 °F 71.6 °F 39% 29.74 in 6.2 mi WSW 12.7 mph - N/A   Partly Cloudy
5:00 PM 91.4 °F 95.4 °F 68.0 °F 46% 29.74 in 6.2 mi SE 13.8 mph - N/A   Partly Cloudy
6:00 PM 89.6 °F 96.2 °F 71.6 °F 55% 29.77 in 6.2 mi South 6.9 mph - N/A   Mostly Cloudy
7:00 PM 87.8 °F 93.8 °F 71.6 °F 58% 29.77 in 6.2 mi SE 6.9 mph - N/A   Mostly Cloudy
8:00 PM 87.8 °F 92.6 °F 69.8 °F 55% 29.80 in 6.2 mi NE 6.9 mph - N/A   Mostly Cloudy
9:00 PM 87.8 °F 95.6 °F 73.4 °F 62% 29.59 in 6.2 mi East 12.7 mph - N/A Thunderstorm Partly Cloudy
10:00 PM 83 °F - 71 °F 60% 29.65 in 12 mi South 18.4 mph - - Thunderstorm Thunderstorm
10:00 PM 82.4 °F 87.2 °F 71.6 °F 70% 29.65 in 6.2 mi South 18.4 mph 34.5 mph N/A Thunderstorm Thunderstorm
11:00 PM 80.6 °F 83.9 °F 69.8 °F 70% 29.65 in 6.2 mi South 15.0 mph - N/A Thunderstorm Thunderstorm